Location: Unspecified
(0.0000°N, 0.0000°E)
Time: 13:40:21
(UTC+00:00)

Vanguard 3 - Pass Details

Date: 24 November 2019
Orbit: 508 x 3263 km, 33.3° (Epoch: 08 December)

Event Time Altitude Azimuth Distance (km) Brightness Sun altitude
Rises 05:59:14 0° 195° (SSW) 3,469 10.5 3.0°
Reaches altitude 10° 06:02:52 10° 170° (S) 2,938 10.5 3.8°
Maximum altitude 06:06:43 15° 138° (SE) 3,040 11.4 4.7°
Drops below altitude 10° 06:11:39 10° 108° (ESE) 3,957 13.8 5.9°
Sets 06:18:08 0° 88° (E) 5,644 12.9 7.4°
